This is the latest recevied weather packets stored in our database for station/object VE9LJW. If no packets are shown the sender has not sent any weather packets the latest 10 day(s).
| Time | Temp. | Humidity | Pressure | Rain* | Wind** | Luminosity | Snow |
|---|---|---|---|---|---|---|---|
| 1777993927 | 25° C | 51% | 1004.8 hPa | 0 mm | - | 636 W/m² | - |
| 1777993623 | 23.89° C | 51% | 1004.7 hPa | 0 mm | - | 680 W/m² | - |
| 1777993322 | 23.89° C | 51% | 1004.6 hPa | 0 mm | - | 683 W/m² | - |
| 1777993021 | 23.89° C | 49% | 1004.7 hPa | 0 mm | - | 708 W/m² | - |
| 1777992720 | 24.44° C | 52% | 1004.8 hPa | 0 mm | - | 730 W/m² | - |
| 1777992416 | 23.89° C | 52% | 1005 hPa | 0 mm | - | 705 W/m² | - |
| 1777992115 | 23.89° C | 52% | 1004.9 hPa | 0 mm | - | 543 W/m² | - |
| 1777991812 | 23.89° C | 51% | 1004.9 hPa | 0 mm | - | 763 W/m² | - |
| 1777991509 | 23.89° C | 51% | 1005.1 hPa | 0 mm | - | 710 W/m² | - |
| 1777991206 | 23.33° C | 53% | 1005 hPa | 0 mm | - | 526 W/m² | - |
| 1777990903 | 23.33° C | 54% | 1004.6 hPa | 0 mm | - | 675 W/m² | - |
| 1777990601 | 23.33° C | 53% | 1004.8 hPa | 0 mm | - | 548 W/m² | - |
| 1777989994 | 22.78° C | 53% | 1004.9 hPa | 0 mm | - | 581 W/m² | - |
| 1777989691 | 22.78° C | 55% | 1005.1 hPa | 0 mm | - | 647 W/m² | - |
| 1777989386 | 22.78° C | 53% | 1005.1 hPa | 0 mm | - | 522 W/m² | - |
| 1777989083 | 22.22° C | 56% | 1005.2 hPa | 0 mm | - | 466 W/m² | - |
| 1777988779 | 22.22° C | 57% | 1005.2 hPa | 0 mm | - | 568 W/m² | - |
| 1777988477 | 21.67° C | 57% | 1005.1 hPa | 0 mm | - | 551 W/m² | - |
| 1777988174 | 21.67° C | 57% | 1005.1 hPa | 0 mm | - | 552 W/m² | - |
| 1777987869 | 21.11° C | 60% | 1005.2 hPa | 0 mm | - | 553 W/m² | - |
| 1777987566 | 21.11° C | 61% | 1005.1 hPa | 0 mm | - | 528 W/m² | - |
| 1777987264 | 20° C | 62% | 1005.2 hPa | 0 mm | - | 509 W/m² | - |
| 1777986960 | 20° C | 62% | 1005 hPa | 0 mm | - | 502 W/m² | - |
| 1777986658 | 19.44° C | 64% | 1005 hPa | 0 mm | - | 516 W/m² | - |
| 1777986356 | 18.89° C | 66% | 1005.2 hPa | 0 mm | - | 420 W/m² | - |
* Rain latest hour (hover to see other rain measurements)
** Current wind speed in m/s (hover to see current wind gust speed)